Tracking 19800 objects as of 23-Jul-2019
HD Live streaming from Space Station
objects crossing your sky now

RITE TARGET 2

Track RITE TARGET 2 now!
10-day predictions
RITE TARGET 2 is classified as:


NORAD ID: 28455
Int'l Code: 2002-056G
Perigee: 782.3 km
Apogee: 799.3 km
Inclination: 98.4 °
Period: 100.5 minutes
Semi major axis: 7161 km
RCS: 0.0143 m2 (small)
Launch date: December 14, 2002
Source: Japan (JPN)
Launch site: TANEGASHIMA SPACE CENTER (TNSTA)
aabbcc
Your satellite tracking list
Your tracking list is empty




NASA's NSSDC Master Catalog

Two Line Element Set (TLE):
1 28455U 02056G   19203.64619679  .00000059  00000-0  37415-4 0  9998
2 28455  98.4322 158.8644 0011857 104.2859 255.9642 14.32425517811772
Source of the keplerian elements: AFSPC